SCP
0 0 0 0 0 0 0 0 0 -0 -0 0 0 0 1 0 0 0 0 0 0 0 0 0 0 0 0 0 0 0 0 0 0 0 0 0 0 0
0 0 0 0 0 0 0 0 0 0 0 0 0 0 1 0 0 0 0 0 0 0 0 0 0 0 0 0 0 0 0 0 0 0 0 0 0 0
0 0 0 0 0 0 0 0 0 0 0 0 0 0 0 0 0 0 0 0 0 0 0 0 0 0 0 0 0 0 0 0 0 0 0 0 0 0
0 0 0 0 0 0 0 0 0 0 0 0 0 0 0 0 0 0 0 0 0 0 0 0 0 0 0 0 0 0 0 0 0 0 0 0 0 0
0 0 0 0 0 0 0 0 0 0 0 0 0 0 0 0 0 0 0 0 0 0 0 0 0 0 0 0 0 0 0 0 0 0 0 0 0 0
0 0 0 0 0 0 0 0 0 0 0 0 0 0 0 0 0 0 0 0 0 0 0 0 0 0 0 0 0 0 0 0 0 0 0 0 0 0
0 0 0 0 0 0 0 0 0 0 0 0 0 0 0 0 0 0 0 0 0 0 0 0 0 0 0 0 0 0 0 0 0 0 0 0 0 0
0 0 0 0 0 0 0 0 -0 -0 0 0 0 0 0 0 0 0 0 0 0 0 0 0 0 0 0 0 -0 0 0 0 0 0 0 0 0 0
0 0 0 0 0 0 0 0 0 -0 -0 0 0 0 0 0 0 0 0 0 0 0 0 0 0 0 0 0 0 0 0 0 0 0 0 0 0 0
0 0 0 0 0 0 0 0 0 0 0 0 0 0 0 0 0 0 0 0 0 0 0 0 0 0 0 0 -0 0 0 0 0 0 0 0 0 0
0 0 0 0 0 0 0 0 0 0 0 0 0 0 0 0 0 0 0 0 0 0 0 0 0 0 0 0 0 0 0 0 0 0 0 0 0 0
0 0 0 0 0 0 0 0 0 0 0 0 0 0 0 0 0 0 0 0 0 0 0 0 0 0 0 0 0 0 0 0 0 0 0 0 0 0
0 0 0 0 0 0 0 0 0 0 0 0 0 0 0 0 0 0 0 0 0 0 0 0 0 0 0 0 0 0 0 0 0 0 0 0 0 0
0 0 0 0 0 0 0 0 0 0 0 0 0 0 0 0 0 0 0 0 0 0 0 0 0 0 0 0 0 0 0 0 0 0 0 0 0 0
0 0 0 0 0 0 0 0 0 0 0 0 0 0 0 0 0 0 0 0 0 0 0 0 0 0 0 0 0 0 0 0 0 0 0 0 0 0
0 0 0 0 0 0 0 0 0 0 0 0 0 0 0 0 0 0 0 0 0 0 0 0 0 0 0 0 0 0 0 0 0 0 0 0 0 0
0 0 0 0 0 0 0 0 0 0 0 0 0 0 0 0 -0 0 0 0 0 0 0 0 0 0 0 0 0 0 0 0 0 0 0 0 0 0
0 0 0 0 0 0 0 0 0 0 0 0 0 0 0 0 0 0 0 0 0 0 0 0 0 0 0 0 0 0 0 0 0 0 0 0 0 0
0 0 0 0 0 0 0 0 0 0 0 0 0 0 0 0 -0 0 0 0 0 0 0 0 0 0 0 0 0 0 0 0 0 0 0 0 0 0
0 0 0 0 0 0 0 0 0 0 0 0 0 0 0 0 0 0 0 0 0 0 0 0 0 0 0 0 0 0 0 0 0 0 0 0 0 0
0 0 0 0 0 0 0 0 0 0 0 0 0 0 0 0 0 0 0 0 0 0 0 0 0 0 0 0 0 0 0 0 0 0 0 0 0 0
0 0 0 0 0 0 0 0 0 0 0 0 0 0 0 0 0 0 0 0 0 0 0 0 0 0 0 0 0 0 0 0 0 0 -0 0 0 0
0 0 0 0 0 0 0 0 0 0 0 0 0 0 0 0 0 0 -0 0 0 0 0 0 0 0 0 0 0 0 0 0 0 0 0 0 0 0
Wind_Speed_500mb
23 19 22 21 32 35 34 29 25 25 37 18 22 30 30 33 31 37 32 26 22 24 21 15 15 15 17 17 19 20 23 27 31 35 40 46 49 46
28 21 23 27 26 32 40 36 29 33 36 33 30 24 25 18 23 33 27 26 24 23 22 21 16 15 15 16 19 20 24 26 32 37 41 47 41 40
28 31 19 20 23 23 37 40 30 28 35 38 29 30 22 17 40 28 26 27 27 27 27 25 18 15 15 17 21 23 24 24 30 34 40 43 39 28
24 23 25 24 26 24 35 39 34 23 28 39 31 33 28 27 28 27 27 28 29 30 28 23 20 18 16 19 20 22 24 23 27 31 38 37 29 19
35 38 27 22 34 30 42 40 33 27 28 30 29 31 30 33 37 28 26 28 33 30 31 29 27 22 18 21 22 23 22 21 23 28 33 29 21 18
43 37 38 38 32 32 40 42 40 38 32 26 25 26 31 30 38 31 34 33 32 36 31 33 32 28 22 21 21 23 19 17 20 24 26 22 17 22
52 43 40 41 37 42 47 46 42 43 37 34 27 24 26 32 32 31 38 36 36 37 34 33 38 32 24 20 19 18 15 14 16 20 20 16 16 22
46 39 37 35 37 45 47 46 34 32 34 36 33 25 25 24 36 41 32 39 40 42 37 32 32 32 27 20 17 15 17 12 13 17 15 11 13 19
35 35 32 28 29 33 35 35 31 29 26 26 37 34 31 33 19 25 33 38 43 38 40 39 32 24 26 22 19 23 19 11 10 13 10 7 10 19
27 28 33 36 34 32 39 49 41 35 32 28 34 33 29 32 31 31 36 28 22 33 34 51 42 30 32 27 24 26 19 12 9 10 5 5 7 15
25 26 30 33 36 35 38 40 45 52 53 46 50 47 48 49 47 37 33 40 40 41 40 49 43 41 35 37 30 26 20 11 8 7 5 7 8 13
25 20 32 32 33 38 43 47 45 39 48 54 62 51 51 44 38 39 37 41 52 41 47 59 33 50 35 41 33 21 17 13 7 4 8 10 9 7
36 23 29 32 38 39 39 42 46 48 46 49 59 56 44 35 32 34 31 43 51 56 46 63 41 55 38 29 33 19 16 15 8 1 8 13 11 7
42 27 34 38 43 47 50 51 56 56 58 54 54 58 48 43 42 36 43 41 46 51 51 39 62 66 59 35 27 26 17 16 14 9 10 14 14 9
46 41 46 43 47 46 36 37 36 39 50 43 36 45 54 58 49 45 33 41 38 54 56 54 74 68 59 44 38 27 25 17 12 10 13 23 23 16
41 41 49 54 55 46 38 35 34 32 29 37 38 36 36 45 52 52 39 43 42 46 52 57 57 76 60 46 28 32 24 23 30 27 20 26 24 19
69 75 74 65 58 42 32 34 38 33 32 37 41 43 46 50 52 44 40 44 50 45 51 51 48 57 49 56 40 38 30 25 40 34 28 29 30 25
63 71 73 62 57 49 40 35 36 34 35 32 34 40 44 47 38 35 39 47 48 48 45 50 50 59 55 49 45 47 38 39 38 30 23 33 37 32
64 69 73 69 64 59 52 43 40 39 33 34 35 34 41 50 54 44 30 47 55 49 45 50 56 81 58 56 50 40 47 47 38 29 15 37 42 39
62 63 63 55 50 46 42 44 40 39 38 40 41 41 41 46 39 47 34 29 48 44 53 51 54 65 76 64 59 52 56 45 40 42 38 40 40 43
45 47 48 48 44 38 38 39 36 35 39 38 38 38 39 45 54 46 43 29 40 43 53 56 48 58 72 74 71 65 56 42 42 41 38 34 45 46
51 50 42 39 40 42 42 42 38 40 44 39 41 44 37 44 50 42 46 34 31 46 51 48 50 61 71 75 72 76 67 54 48 40 37 42 55 53
46 49 49 45 43 45 41 42 41 42 41 41 42 33 39 48 38 38 46 46 26 48 57 53 54 63 73 77 74 70 72 62 52 51 39 42 40 37
Wind_Direction_500mb
304 318 334 338 342 334 318 316 326 330 305 323 232 258 249 233 247 241 237 240 239 241 249 259 271 287 287 298 304 310 318 322 328 325 332 333 339 339
329 290 310 315 316 327 335 335 323 311 298 307 300 294 260 260 257 250 241 233 236 239 246 253 269 271 294 299 299 306 316 325 324 328 335 338 345 347
305 322 307 320 301 308 327 325 318 304 296 290 292 289 258 272 236 250 245 229 236 239 240 242 257 269 295 300 300 305 313 321 318 331 337 344 349 350
295 287 301 299 303 308 306 314 316 323 313 298 294 286 269 270 253 244 244 244 244 247 244 238 247 257 285 295 298 302 309 314 321 335 344 354 1 6
273 275 270 277 280 303 287 290 308 310 300 313 308 290 279 272 272 270 247 252 255 246 237 235 237 242 267 284 299 307 308 311 325 339 351 4 15 10
290 277 273 265 261 254 275 281 285 291 303 298 318 307 288 285 261 255 249 262 250 253 230 230 231 234 249 276 292 304 303 310 325 344 355 10 12 3
297 288 275 261 257 261 262 273 276 279 283 293 287 309 292 265 266 271 258 258 251 245 248 237 232 234 241 263 283 296 309 308 329 347 0 13 10 4
302 296 284 274 256 247 255 255 261 270 278 280 287 281 295 293 275 268 262 247 237 235 236 249 234 233 240 246 271 294 314 308 333 346 4 18 16 14
312 311 303 289 276 255 249 257 254 252 266 278 283 281 280 281 266 277 270 260 253 236 231 234 246 237 235 243 266 296 304 304 322 343 12 33 23 19
305 297 297 295 291 279 264 251 247 240 232 243 271 281 275 268 266 274 275 274 271 232 220 222 232 235 236 244 260 273 286 278 298 335 41 71 49 35
304 297 289 285 275 275 275 275 267 252 243 231 238 245 256 260 270 271 254 236 239 229 222 213 219 221 231 242 250 269 265 252 275 316 124 129 85 44
299 292 295 288 277 266 265 267 274 273 255 242 232 235 246 252 259 266 255 254 226 220 223 205 207 208 207 233 246 253 244 231 237 312 142 150 133 63
297 303 291 280 274 276 270 265 264 267 261 251 240 239 241 245 253 256 259 247 244 225 227 208 208 199 214 228 230 235 233 223 203 239 151 140 132 91
298 284 275 276 274 282 285 276 266 266 268 265 254 244 240 233 246 250 267 256 250 225 229 208 207 206 210 217 223 219 206 198 192 119 139 150 134 98
296 291 288 287 283 282 286 291 286 269 259 265 253 244 237 234 232 235 260 247 250 239 228 218 204 209 213 214 225 218 190 167 184 163 202 160 159 160
299 293 287 290 295 295 292 290 294 294 265 258 249 229 231 241 247 236 256 252 254 250 229 228 222 218 216 208 232 211 204 169 190 208 231 188 174 156
282 287 291 294 293 290 280 275 283 283 273 258 254 242 238 240 243 241 243 248 247 246 231 236 220 201 212 212 215 216 196 185 201 217 228 199 178 162
281 281 285 285 283 283 278 269 260 267 271 273 257 253 243 239 252 253 251 246 246 245 231 226 208 198 200 202 207 194 189 194 205 217 223 189 174 161
276 278 280 282 281 284 275 271 261 251 262 264 262 255 248 245 247 249 261 240 237 238 233 225 216 196 187 181 189 195 190 200 198 204 186 190 176 166
280 278 280 282 284 286 277 279 268 257 257 254 255 256 247 244 254 258 261 260 229 236 223 221 219 223 199 201 189 191 190 204 198 186 189 184 178 165
286 281 276 277 282 279 276 273 270 258 253 251 249 256 242 249 243 245 253 256 239 234 220 220 220 218 207 201 189 176 181 190 204 200 193 191 175 173
285 285 281 269 261 261 268 273 271 258 256 254 252 250 247 250 242 247 258 242 260 229 230 226 214 215 204 202 198 185 179 182 200 201 210 201 181 179
269 268 269 267 264 262 262 268 272 267 255 254 253 245 251 246 232 250 256 240 265 232 222 221 214 210 207 202 196 190 183 183 187 188 193 203 198 192
Wind_Speed_850mb
23 19 22 21 32 35 34 29 25 25 37 18 22 30 30 33 31 37 32 26 22 24 21 15 15 15 17 17 19 20 23 27 31 35 40 46 49 46
28 21 23 27 26 32 40 36 29 33 36 33 30 24 25 18 23 33 27 26 24 23 22 21 16 15 15 16 19 20 24 26 32 37 41 47 41 40
28 31 19 20 23 23 37 40 30 28 35 38 29 30 22 17 40 28 26 27 27 27 27 25 18 15 15 17 21 23 24 24 30 34 40 43 39 28
24 23 25 24 26 24 35 39 34 23 28 39 31 33 28 27 28 27 27 28 29 30 28 23 20 18 16 19 20 22 24 23 27 31 38 37 29 19
35 38 27 22 34 30 42 40 33 27 28 30 29 31 30 33 37 28 26 28 33 30 31 29 27 22 18 21 22 23 22 21 23 28 33 29 21 18
43 37 38 38 32 32 40 42 40 38 32 26 25 26 31 30 38 31 34 33 32 36 31 33 32 28 22 21 21 23 19 17 20 24 26 22 17 22
52 43 40 41 37 42 47 46 42 43 37 34 27 24 26 32 32 31 38 36 36 37 34 33 38 32 24 20 19 18 15 14 16 20 20 16 16 22
46 39 37 35 37 45 47 46 34 32 34 36 33 25 25 24 36 41 32 39 40 42 37 32 32 32 27 20 17 15 17 12 13 17 15 11 13 19
35 35 32 28 29 33 35 35 31 29 26 26 37 34 31 33 19 25 33 38 43 38 40 39 32 24 26 22 19 23 19 11 10 13 10 7 10 19
27 28 33 36 34 32 39 49 41 35 32 28 34 33 29 32 31 31 36 28 22 33 34 51 42 30 32 27 24 26 19 12 9 10 5 5 7 15
25 26 30 33 36 35 38 40 45 52 53 46 50 47 48 49 47 37 33 40 40 41 40 49 43 41 35 37 30 26 20 11 8 7 5 7 8 13
25 20 32 32 33 38 43 47 45 39 48 54 62 51 51 44 38 39 37 41 52 41 47 59 33 50 35 41 33 21 17 13 7 4 8 10 9 7
36 23 29 32 38 39 39 42 46 48 46 49 59 56 44 35 32 34 31 43 51 56 46 63 41 55 38 29 33 19 16 15 8 1 8 13 11 7
42 27 34 38 43 47 50 51 56 56 58 54 54 58 48 43 42 36 43 41 46 51 51 39 62 66 59 35 27 26 17 16 14 9 10 14 14 9
46 41 46 43 47 46 36 37 36 39 50 43 36 45 54 58 49 45 33 41 38 54 56 54 74 68 59 44 38 27 25 17 12 10 13 23 23 16
41 41 49 54 55 46 38 35 34 32 29 37 38 36 36 45 52 52 39 43 42 46 52 57 57 76 60 46 28 32 24 23 30 27 20 26 24 19
69 75 74 65 58 42 32 34 38 33 32 37 41 43 46 50 52 44 40 44 50 45 51 51 48 57 49 56 40 38 30 25 40 34 28 29 30 25
63 71 73 62 57 49 40 35 36 34 35 32 34 40 44 47 38 35 39 47 48 48 45 50 50 59 55 49 45 47 38 39 38 30 23 33 37 32
64 69 73 69 64 59 52 43 40 39 33 34 35 34 41 50 54 44 30 47 55 49 45 50 56 81 58 56 50 40 47 47 38 29 15 37 42 39
62 63 63 55 50 46 42 44 40 39 38 40 41 41 41 46 39 47 34 29 48 44 53 51 54 65 76 64 59 52 56 45 40 42 38 40 40 43
45 47 48 48 44 38 38 39 36 35 39 38 38 38 39 45 54 46 43 29 40 43 53 56 48 58 72 74 71 65 56 42 42 41 38 34 45 46
51 50 42 39 40 42 42 42 38 40 44 39 41 44 37 44 50 42 46 34 31 46 51 48 50 61 71 75 72 76 67 54 48 40 37 42 55 53
46 49 49 45 43 45 41 42 41 42 41 41 42 33 39 48 38 38 46 46 26 48 57 53 54 63 73 77 74 70 72 62 52 51 39 42 40 37
Wind_Direction_850mb
304 318 334 338 342 334 318 316 326 330 305 323 232 258 249 233 247 241 237 240 239 241 249 259 271 287 287 298 304 310 318 322 328 325 332 333 339 339
329 290 310 315 316 327 335 335 323 311 298 307 300 294 260 260 257 250 241 233 236 239 246 253 269 271 294 299 299 306 316 325 324 328 335 338 345 347
305 322 307 320 301 308 327 325 318 304 296 290 292 289 258 272 236 250 245 229 236 239 240 242 257 269 295 300 300 305 313 321 318 331 337 344 349 350
295 287 301 299 303 308 306 314 316 323 313 298 294 286 269 270 253 244 244 244 244 247 244 238 247 257 285 295 298 302 309 314 321 335 344 354 1 6
273 275 270 277 280 303 287 290 308 310 300 313 308 290 279 272 272 270 247 252 255 246 237 235 237 242 267 284 299 307 308 311 325 339 351 4 15 10
290 277 273 265 261 254 275 281 285 291 303 298 318 307 288 285 261 255 249 262 250 253 230 230 231 234 249 276 292 304 303 310 325 344 355 10 12 3
297 288 275 261 257 261 262 273 276 279 283 293 287 309 292 265 266 271 258 258 251 245 248 237 232 234 241 263 283 296 309 308 329 347 0 13 10 4
302 296 284 274 256 247 255 255 261 270 278 280 287 281 295 293 275 268 262 247 237 235 236 249 234 233 240 246 271 294 314 308 333 346 4 18 16 14
312 311 303 289 276 255 249 257 254 252 266 278 283 281 280 281 266 277 270 260 253 236 231 234 246 237 235 243 266 296 304 304 322 343 12 33 23 19
305 297 297 295 291 279 264 251 247 240 232 243 271 281 275 268 266 274 275 274 271 232 220 222 232 235 236 244 260 273 286 278 298 335 41 71 49 35
304 297 289 285 275 275 275 275 267 252 243 231 238 245 256 260 270 271 254 236 239 229 222 213 219 221 231 242 250 269 265 252 275 316 124 129 85 44
299 292 295 288 277 266 265 267 274 273 255 242 232 235 246 252 259 266 255 254 226 220 223 205 207 208 207 233 246 253 244 231 237 312 142 150 133 63
297 303 291 280 274 276 270 265 264 267 261 251 240 239 241 245 253 256 259 247 244 225 227 208 208 199 214 228 230 235 233 223 203 239 151 140 132 91
298 284 275 276 274 282 285 276 266 266 268 265 254 244 240 233 246 250 267 256 250 225 229 208 207 206 210 217 223 219 206 198 192 119 139 150 134 98
296 291 288 287 283 282 286 291 286 269 259 265 253 244 237 234 232 235 260 247 250 239 228 218 204 209 213 214 225 218 190 167 184 163 202 160 159 160
299 293 287 290 295 295 292 290 294 294 265 258 249 229 231 241 247 236 256 252 254 250 229 228 222 218 216 208 232 211 204 169 190 208 231 188 174 156
282 287 291 294 293 290 280 275 283 283 273 258 254 242 238 240 243 241 243 248 247 246 231 236 220 201 212 212 215 216 196 185 201 217 228 199 178 162
281 281 285 285 283 283 278 269 260 267 271 273 257 253 243 239 252 253 251 246 246 245 231 226 208 198 200 202 207 194 189 194 205 217 223 189 174 161
276 278 280 282 281 284 275 271 261 251 262 264 262 255 248 245 247 249 261 240 237 238 233 225 216 196 187 181 189 195 190 200 198 204 186 190 176 166
280 278 280 282 284 286 277 279 268 257 257 254 255 256 247 244 254 258 261 260 229 236 223 221 219 223 199 201 189 191 190 204 198 186 189 184 178 165
286 281 276 277 282 279 276 273 270 258 253 251 249 256 242 249 243 245 253 256 239 234 220 220 220 218 207 201 189 176 181 190 204 200 193 191 175 173
285 285 281 269 261 261 268 273 271 258 256 254 252 250 247 250 242 247 258 242 260 229 230 226 214 215 204 202 198 185 179 182 200 201 210 201 181 179
269 268 269 267 264 262 262 268 272 267 255 254 253 245 251 246 232 250 256 240 265 232 222 221 214 210 207 202 196 190 183 183 187 188 193 203 198 192